User: anonymous   Login
Location: City of Britt
(43.0975°N, 93.8032°W)
Time: 18:39:08
(UTC+00:00)
Language:

JY1SAT - Orbit

View from above orbital plane
View from above orbital plane
View from above satellite
View from above satellite

Ground track
Ground track

The orbit data is extracted from the following two-line orbital elements,

1 43803U 18099AX  24337.40274008  .00021117  00000-0  11696-2 0  9996
2 43803  97.4972  32.7923 0009729  85.3532 274.8810 15.13800022328080
Epoch (UTC): 02 December 2024 09:39:56
Eccentricity: 0.0009729
inclination: 97.4972°
perigee height: 518 km
apogee height: 531 km
right ascension of ascending node: 32.7923°
argument of perigee: 85.3532°
revolutions per day: 15.13800022
mean anomaly at epoch: 274.8810°
orbit number at epoch: 32808

The dashed part of the orbit path shows where the satellite is in the earth's shadow,  

DLR